Weather in Chuyevo-Podgornoye

Russia / Tambov Oblast     51°53′03″N   42°13′58″E
temp.,
°C
wind,
m/s
gust,
m/s
humid.,
%
clouds,
%
prec.,
mm/h
press.,
hPa
HPBL,
m
27 february, sat
sat2700:00+2w51295100 0.1 1006378
03:000w61393100 0.1 1007342
06:00+1w6139594 0.0 1005608
09:00+1w7139496 0.1 1005663
12:00+1w71310097 0.0 1004740
15:00+1wnw8149895 0.2 1005812
18:00−7nnw6118795 0.3 1007684
21:00−8nnw6118995 0.3 1010587
28 february, sun
sun2800:00−10nw499197 0.0 1012486
03:00−11nw389366 0.0 1014315
06:00−11nw37930 0.0 1014275
09:00−10nw47907 0.0 1015340
12:00−8nw358753 0.0 1016466
15:00−6nw358776 0.1 1016533
18:00−7nw3592100 0.1 1016266
21:00−9nnw339490 0.1 101972
1 march, mon
mon100:00−10nne239549 0.0 102052
03:00−11nnw129444 0.0 102121
06:00−11nnw22930 0.0 102224
09:00−10nnw12920 0.0 1025136
12:00−7nw228672 0.0 1025371
15:00−5nw348786 0.0 1026496
18:00−6w249295 0.0 1025120
21:00−5wsw389594 0.1 1025309
2 march, tue
tue200:00−3wsw51190100 0.0 1023464
03:00−4wsw61390100 0.1 1020449
06:00−2wsw81595100 0.1 1016585
09:00−1w81495100 1.1 1013722
12:00+1wnw81399100 0.7 1010769
15:00+1nw6119199 1.0 1010804
18:00−1nw6138963 0.1 1010455
21:00−1nw5129348 0.1 1011473
3 march, wed
wed300:00−2wnw61293100 0.1 1011524
03:00−3nw6139197 0.1 1011504
06:00−3nw6118887 0.0 1012720
09:00−2nw6108894 0.1 1014821
12:00−2nw71088100 0.1 1015907
15:00−1nw7118495 0.1 1016929
18:00−3nw6128985 0.1 1017478
21:00−3nw5108880 0.1 1019701